Location: Krasnoyarskiy Pitomnik
(51.1333°N, 71.6167°E)
Time: 10:29:53
(UTC+00:00)

Iridium 4 Rocket - Pass Details

Date: 22 October 2021
Orbit: 586 x 903 km, 86.9° (Epoch: 06 December)

Event Time Altitude Azimuth Distance (km) Brightness Sun altitude
Rises 13:24:25 0° 357° (N) 2,932 6.5 -12.9°
Reaches altitude 10° 13:26:35 10° 359° (N) 2,055 5.7 -13.2°
Maximum altitude 13:31:07 76° 86° (E) 710 3.2 -13.9°
Drops below altitude 10° 13:36:03 10° 172° (S) 2,227 5.8 -14.7°
Sets 13:38:28 0° 174° (S) 3,198 6.7 -15.1°
